Home   Weather   West Bromwich   Past weeks

Flag for United Kingdom Past Weather in West Bromwich, England, United Kingdom — Yesterday and Last 2 Weeks

Now
30 °F

Sunny.


Feels Like: 25 °F
Forecast: 43 / 53 °F
Wind: 5 mph from West

Location: Birmingham / Airport

Current Time: Apr 27, 2017 at 6:43:44 am

Latest Report: Apr 27, 2017 at 5:50 am


Visibility: 10 mi

Pressure: 30.12 "Hg

Humidity: 100%

Dew Point: 30 °F

Location of West BromwichLocation

Past Weather in West Bromwich — Graph

°F

West Bromwich Temperature Yesterday

Maximum temperature yesterday: 48 °F (at 4:20 pm)
Minimum temperature yesterday: 36 °F (at 12:20 am)
Average temperature yesterday: 41 °F

High & Low Weather Summary for the Past Weeks

 TemperatureHumidityPressure
High59 °F (Apr 22, 3:20 pm)100% (Apr 12, 7:20 pm)30.63 "Hg (Apr 12, 7:20 pm)
Low30 °F (Apr 27, 3:20 am)35% (Apr 18, 5:50 pm)29.89 "Hg (Apr 25, 3:50 am)
Average47 °F72%30.22 "Hg
* Reported Apr 12 5:20 am — Apr 27 5:50 am, West Bromwich, Weather by CustomWeather, © 2017

Note: Actual official high and low records may vary slightly from our data, if they occured in-between our weather recording intervals... More about our weather records

Advertising

West Bromwich Weather History for the Previous 24 Hours

Scroll right to see more
 ConditionsComfort  
Time TempWeatherWind HumidityBarometerVisibility
5:50 am
Thu, Apr 27
30 °FSunny.5 mph100%30.12 "Hg10 mi
5:20 am30 °FClear.1 mph100%30.12 "Hg10 mi
4:50 am30 °FClear.1 mph100%30.12 "Hg10 mi
4:20 am30 °FClear.5 mph100%30.12 "Hg10 mi
3:50 am30 °FClear.5 mph100%30.12 "Hg10 mi
3:20 am30 °FClear.5 mph100%30.12 "Hg6 mi
2:50 am32 °FClear.5 mph100%30.12 "Hg10 mi
2:20 am32 °FClear.3 mph100%30.12 "Hg10 mi
1:50 am36 °FClear.5 mph100%30.12 "Hg10 mi
1:20 am36 °FClear.5 mph100%30.15 "Hg10 mi
12:50 am36 °FClear.5 mph100%30.15 "Hg10 mi
12:20 am36 °FClear.3 mph100%30.15 "Hg10 mi
11:50 pm
Wed, Apr 26
36 °FClear.6 mph100%30.15 "Hg10 mi
11:20 pm37 °FPassing clouds.5 mph93%30.15 "HgN/A
10:50 pm37 °FPassing clouds.5 mph93%30.15 "HgN/A
10:20 pm39 °FPassing clouds.3 mph87%30.15 "HgN/A
9:50 pm41 °FPassing clouds.3 mph70%30.15 "HgN/A
9:20 pm39 °FSnow flurries. Passing clouds.3 mph93%30.15 "HgN/A
8:50 pm41 °FScattered showers. Passing clouds.3 mph76%30.12 "HgN/A
8:20 pm41 °FSprinkles. Broken clouds.9 mph76%30.12 "Hg6 mi
7:50 pm45 °FScattered showers. Passing clouds.3 mph61%30.12 "HgN/A
6:50 pm45 °FScattered showers. Scattered clouds.6 mph61%30.09 "HgN/A
6:20 pm46 °FScattered showers. Passing clouds.10 mph46%30.09 "HgN/A
5:50 pm48 °FScattered showers. Scattered clouds.5 mph46%30.09 "HgN/A
5:20 pm46 °FScattered showers. Scattered clouds.12 mph53%30.09 "HgN/A
4:50 pm48 °FScattered showers. Scattered clouds.12 mph46%30.09 "HgN/A
4:20 pm48 °FScattered showers. Scattered clouds.10 mph46%30.09 "HgN/A
3:50 pm46 °FScattered showers. Scattered clouds.9 mph53%30.09 "HgN/A
3:20 pm45 °FScattered showers. Scattered clouds.7 mph66%30.09 "HgN/A
2:50 pm41 °FScattered showers. Scattered clouds.16 mph81%30.09 "HgN/A
2:20 pm46 °FSprinkles. Broken clouds.14 mph53%30.09 "HgN/A
1:50 pm46 °FScattered showers. Scattered clouds.10 mph50%30.09 "HgN/A
1:20 pm45 °FScattered showers. Partly sunny.10 mph57%30.09 "HgN/A
12:50 pm46 °FScattered showers. Scattered clouds.10 mph57%30.09 "HgN/A
12:20 pm46 °FScattered showers. Partly sunny.13 mph53%30.09 "HgN/A
11:50 am45 °FScattered showers. Partly sunny.12 mph61%30.09 "HgN/A
11:20 am45 °FPartly sunny.14 mph61%30.09 "HgN/A
10:50 am45 °FBroken clouds.12 mph61%30.09 "HgN/A
10:20 am41 °FPartly sunny.13 mph70%30.09 "HgN/A
9:50 am43 °FBroken clouds.13 mph66%30.09 "HgN/A
9:20 am41 °FScattered clouds.13 mph70%30.09 "HgN/A
8:50 am41 °FPartly sunny.12 mph70%30.09 "HgN/A
8:20 am39 °FScattered clouds.13 mph75%30.09 "HgN/A
7:50 am39 °FPartly sunny.13 mph75%30.07 "HgN/A
7:20 am37 °FPassing clouds.13 mph81%30.07 "HgN/A
6:50 am37 °FScattered clouds.12 mph81%30.07 "HgN/A
6:20 am37 °FPartly sunny.12 mph81%30.07 "HgN/A
Weather by CustomWeather, © 2017

See weather overviewHow to use our weather pages